Showing default

TDRS 5, 21639

Orbit data source: Space-Track

TDRS 5, 21639 is a payload satellite owned by GSFC (US) in GEO that was launched on Fri, 02 Aug 1991 UTC via an SPACE SHUTTLE launch vehicle from the Air Force Eastern Test Range (AFETR). Payload-class satellites include a variety of spacecraft equipped with specific instruments for various scientific and technological missions. These include communications satellites like Starlink; space stations such as the ISS; scientific satellites like the Hubble; Earth observation satellites from companies like Planet Labs, Umbra, and HawkEye 360; GPS; miniature CubeSats for education and research; and military/defense satellites.

Loading next visibility...
Identifier
21639, 1991-054B
Orbit
GEO
Country
Flag of USUS
Related business
Manufacturer
TRW
Mission
Operational Civil Communications
Bus & Motor
TDRS, AOCS
Mass
2,534 kg wet, ~1,700 kg dry
Launch date (UTC)
1991-08-02 (34 years ago)
Launch vehicle
SPACE SHUTTLE
Launch site
Air Force Eastern Test Range (AFETR)
Object type
Payload
Rocket body
Debris
Shape & HBR
Hex Cyl + 2 Pan, 8.9 m
Radar Cross Section
13.873 m², Large (>1 m²)

Expand to show TLE details & history
Last TLE update: 1 day ago

TLE from 1 day ago
0 TDRS 5
1 21639U 91054B   25346.24317225  .00000085  00000-0  00000-0 0  9999
2 21639  14.0942 355.1589 0013928 255.9382 110.0675  1.00267661125845
Epoch: 2025-12-12T05:50Z
TLE epoch observation values (Epoch: 2025-12-12T05:50:10.082Z)
Latitude
1.50103°
Longitude
-167.60464°
Altitude
35,807.38 km
Speed
3.073 km/s
True Right ascension
00h 04m 29s
True Declination
1° 29' 58"
Sunlit
Object was in daylight at epoch
Visualization orbit readout
Latitude
Unknown
Longitude
Unknown
Altitude
Unknown
Speed
Unknown
Apparent Right ascension
Unknown
Apparent Declination
Unknown
Sunlit
N/A
Visualization observer readout
Local Sidereal Time
05:23:55
Azimuth
Unknown
Elevation
Unknown
Doppler factor
Unknown
Orbital elements
Apogee altitude
35,847.459 km
Perigee altitude
35,729.999 km
Semi-major axis
42,166.866 km
Eccentricity
0.00139
Inclination
14.0942°
RAAN
355.1589°
Arg. of periapsis
255.9382°
True anomaly
110.21732°
Mean anomaly
110.0675°
Eccentric anomaly
110.14242°
Mean motion
0.25066 °/min
Orbital period
1,436.2 mins
BSTAR
0
Loading maneuver chart data...
Computing Atmospheric mass density...
Loading historical data...
Loading historical data...
Loading historical data...
Loading historical data...
Loading historical data...
Loading historical data...
Loading historical data...
Other satellites on launch #54 in the year 1991 (1991-08-02 UTC)

Documentation

Showing up to 5 results
|